Simultaneous Nadir Overpasses (SNOs) Predictions

Prediction of SNOs between GOES-16 and NOAA-19 Satellite Orbit:

Table of predicted SNOs for the next 14.0 days since TLE Epoch: 4/17/2020
Index Date Time (GOES-16) GOES-16 Lat,Lon NOAA-19 Lat,Lon Distance(km) Time Diff (sec)
1 04/17/2020 22:50:34 -0.01, -75.16 -0.35, -76.72 177.38 80
2 04/18/2020 22:41:34 -0.01, -75.17 0.30, -73.87 148.16 80
3 04/19/2020 22:29:53 -0.01, -75.17 0.94, -71.01 473.86 80
4 04/21/2020 11:02:35 0.01, -75.19 0.87, -78.84 416.84 80
5 04/22/2020 10:50:55 0.01, -75.19 0.22, -75.98 90.84 80
6 04/23/2020 10:36:36 0.01, -75.20 -0.49, -73.14 235.36 80
7 04/25/2020 22:57:37 -0.01, -75.20 -0.67, -78.11 332.35 80
8 04/26/2020 22:45:57 -0.01, -75.21 -0.03, -75.26 6.13 80
9 04/27/2020 22:36:57 -0.00, -75.22 0.68, -72.42 320.29 80
10 04/30/2020 10:57:57 0.00, -75.26 0.50, -77.38 242.08 80
11 05/01/2020 10:43:37 0.00, -75.27 -0.16, -74.52 84.61 80




NCC Satellite Simultaneous Nadir Overpasses (SNOs) Prediction Service
